Location: Newark
(27.9675°N, 86.8869°E)
Time: 09:34:15
(UTC+00:00)

Courier 1B Rocket - Pass Details

Date: 17 October 2019
Orbit: 920 x 1202 km, 28.2° (Epoch: 14 November)

Event Time Altitude Azimuth Distance (km) Brightness Sun altitude
Rises 02:44:35 0° 279° (W) 3,652 7.5 30.4°
Reaches altitude 10° 02:47:10 10° 276° (W) 2,738 7.0 30.8°
Maximum altitude 02:53:46 67° 195° (SSW) 1,114 6.0 32.1°
Drops below altitude 10° 03:00:54 10° 114° (ESE) 2,942 8.9 33.4°
Sets 03:03:47 0° 112° (ESE) 3,941 9.2 33.9°
